Regional Weather Roundup
Issued by NWS

Home | Current Version | Previous Version | Graphics & Text | Print | Product List | Glossary On
Versions: 1 2 3 4 5 6 7 8 9 10 11 12 13 14 15 16 17 18 19 20 21 22 23 24 25 26 27 28 29 30 31 32 33 34 35 36 37 38 39 40 41 42 43 44 45 46 47 48 49 50
000
ASUS43 KLSX 302059
RWRMO

WEATHER SUMMARY FOR MISSOURI
NATIONAL WEATHER SERVICE SPRINGFIELD MO
400 PM CDT SAT AUG 30 2014

NOTE: "FAIR" INDICATES FEW OR NO CLOUDS BELOW 12,000 FEET WITH NO
       SIGNIFICANT WEATHER AND/OR OBSTRUCTIONS TO VISIBILITY.
       CURRENT SKY AND/OR WEATHER CONDITIONS ARE NOT AVAILABLE FOR
       CHILLICOTHE AND FARMINGTON.

MOZ001>031-035>038-043-044-053-054-302200-
...NORTHERN AND WESTERN MISSOURI...

CITY           SKY/WX    TMP DP  RH WIND       PRES   REMARKS
KANSAS CTY INT PTSUNNY   85  68  56 SW6       29.91F
KANSAS C DTWN  SUNNY     89  65  44 CALM      29.88F HX  91
LEE`S SUMMIT   MOSUNNY   86  67  52 VRB6      29.91F
ST JOSEPH      MOSUNNY   86  68  54 NE3       29.90F
KIRKSVILLE     SUNNY     85  67  54 NW7       29.91F

$$
MOZ066>068-077>081-088>096-101>105-302200-
...SOUTHWEST MISSOURI...

CITY           SKY/WX    TMP DP  RH WIND       PRES   REMARKS
SPRINGFIELD    CLOUDY    79  65  62 N18       29.91F
JOPLIN         MOSUNNY   92  63  38 VRB5      29.89F HX  93

$$
MOZ032>034-039>042-045>050-055>058-069>072-302200-
...CENTRAL MISSOURI...

CITY           SKY/WX    TMP DP  RH WIND       PRES   REMARKS
COLUMBIA       TSTM      78  71  79 SW21      29.91R
JEFFERSON CITY MOSUNNY   86  72  62 E8        29.86F HX  92
ROLLA          CLOUDY    72  67  84 S10       29.93F THUNDER
SEDALIA        MOSUNNY   88  68  51 NW8       29.90F HX  91
OSAGE BEACH    PTSUNNY   82  66  57 S6        29.90F

$$
MOZ051-052-059>065-302200-
...EAST CENTRAL MISSOURI...

CITY           SKY/WX    TMP DP  RH WIND       PRES   REMARKS
ST LOUIS INTL  PTSUNNY   88  71  57 SW12      29.90F HX  94
SPIRIT OF STL  PTSUNNY   84  71  65 SW7       29.88F
ST CHARLES     PTSUNNY   86  72  62 SW12      29.88F HX  92

$$
MOZ072>076-082>087-097>100-106>115-302200-
...SOUTH CENTRAL AND SOUTHEAST MISSOURI...

CITY           SKY/WX    TMP DP  RH WIND       PRES   REMARKS
CAPE GIRARDEAU CLOUDY    79  70  74 S10       29.97S
FARMINGTON     PTSUNNY   84  70  61 S14       29.97F
POPLAR BLUFF   PTSUNNY   83  69  62 S14       29.95F
WEST PLAINS    PTSUNNY   81  69  67 SW7       29.98S

$$



USA.gov is the U.S. government's official web portal to all federal, state and local government web resources and services.